This is the latest recevied weather packets stored in our database for station/object K6TTR. If no packets are shown the sender has not sent any weather packets the latest 10 day(s).
| Time | Temp. | Humidity | Pressure | Rain* | Wind** | Luminosity | Snow |
|---|---|---|---|---|---|---|---|
| 1778010227 | 18.33° C | 44% | 1013.1 hPa | 0 mm | - | 1151 W/m² | - |
| 1778009914 | 18.33° C | 47% | 1013.3 hPa | 0 mm | - | 195 W/m² | - |
| 1778009619 | 18.33° C | 48% | 1013.3 hPa | 0 mm | - | 199 W/m² | - |
| 1778009325 | 18.33° C | 49% | 1013.3 hPa | 0 mm | - | 255 W/m² | - |
| 1778009030 | 18.33° C | 48% | 1013.3 hPa | 0 mm | - | 193 W/m² | - |
| 1778008716 | 18.33° C | 47% | 1013.3 hPa | 0 mm | - | 176 W/m² | - |
| 1778008421 | 17.78° C | 46% | 1013.3 hPa | 0 mm | - | 176 W/m² | - |
| 1778008125 | 17.78° C | 49% | 1013.4 hPa | 0 mm | - | 1030 W/m² | - |
| 1778007829 | 17.78° C | 51% | 1013.4 hPa | 0 mm | - | 970 W/m² | - |
| 1778007513 | 17.22° C | 52% | 1013.4 hPa | 0 mm | - | 1014 W/m² | - |
| 1778007219 | 17.22° C | 52% | 1013.3 hPa | 0 mm | - | 204 W/m² | - |
| 1778006926 | 17.78° C | 51% | 1013.3 hPa | 0 mm | - | 967 W/m² | - |
| 1778006611 | 17.78° C | 52% | 1013.3 hPa | 0 mm | - | 940 W/m² | - |
| 1778006316 | 17.22° C | 54% | 1013.3 hPa | 0 mm | - | 949 W/m² | - |
| 1778006021 | 17.22° C | 54% | 1013.3 hPa | 0 mm | - | 928 W/m² | - |
| 1778005727 | 17.22° C | 54% | 1013.4 hPa | 0 mm | - | 919 W/m² | - |
| 1778005411 | 16.67° C | 53% | 1013.5 hPa | 0 mm | - | 907 W/m² | - |
| 1778005116 | 16.67° C | 53% | 1013.5 hPa | 0 mm | - | 893 W/m² | - |
| 1778004820 | 16.67° C | 55% | 1013.5 hPa | 0 mm | - | 884 W/m² | - |
| 1778004527 | 16.67° C | 55% | 1013.4 hPa | 0 mm | - | 874 W/m² | - |
| 1778004214 | 16.11° C | 56% | 1013.4 hPa | 0 mm | - | 860 W/m² | - |
| 1778003918 | 16.11° C | 58% | 1013.6 hPa | 0 mm | - | 844 W/m² | - |
| 1778003622 | 16.11° C | 56% | 1013.6 hPa | 0 mm | - | 838 W/m² | - |
| 1778003328 | 15.56° C | 57% | 1013.6 hPa | 0 mm | - | 824 W/m² | - |
| 1778003014 | 15.56° C | 60% | 1013.7 hPa | 0 mm | - | 397 W/m² | - |
* Rain latest hour (hover to see other rain measurements)
** Current wind speed in m/s (hover to see current wind gust speed)